{"data":{"norad_id":67887,"intl_designator":"2026-035J","name":"STARLINK-36368","alt_names":[],"object_type":"PAYLOAD","status":"ACTIVE","operator":null,"country":"US","launch_date":"2026-02-21","launch_site_code":"AFWTR","launch_vehicle":null,"mission":null,"orbit_class":"UNKNOWN","rcs_meters":null,"size_class":null,"mass_kg":null,"dimensions":null,"purposes":["comms"],"wikipedia_slug":null,"has_3d_model":false,"image_url":null,"decayed_at":null,"tle_current":{"epoch":"2026-09-19T01:32:29.943744Z","epoch_age_seconds":187313,"freshness":"STALE","line1":"1 67887U 26035J   26262.06423546  .00020418  00000+0  63245-3 0  9997","line2":"2 67887  97.2853 193.9426 0001958  92.5851 267.5616 15.33474581 33627","mean_motion":15.33474581,"eccentricity":0.0001958,"inclination_deg":97.2853,"raan_deg":193.9426,"arg_perigee_deg":92.5851,"mean_anomaly_deg":267.5616,"bstar":0.00063245,"rev_number":3362,"period_min":93.904393189286,"perigee_km":464.11518830331,"apogee_km":466.79513899459,"semimajor_km":6843.5921636489,"source":"CELESTRAK","updated_at":"2026-09-20T09:00:43.696987Z"}}}